User: anonymous   Login
Location: Hopville
(44.8032°N, 123.1329°W)
Time: 19:10:35
(UTC+00:00)
Language:

Cosmos 1300 - Orbit

View from above orbital plane
View from above orbital plane
View from above satellite
View from above satellite

Ground track
Ground track

The orbit data is extracted from the following two-line orbital elements,

1 12785U 81082A   21104.57598463  .00000673  00000-0  31490-4 0  9994
2 12785  82.5008 130.3967 0002830  82.9947  35.2302 15.18028622163526
Epoch (UTC): 14 April 2021 13:49:25
Eccentricity: 0.0002830
inclination: 82.5008°
perigee height: 510 km
apogee height: 514 km
right ascension of ascending node: 130.3967°
argument of perigee: 82.9947°
revolutions per day: 15.18028622
mean anomaly at epoch: 35.2302°
orbit number at epoch: 16352

The dashed part of the orbit path shows where the satellite is in the earth's shadow,  

DLR